TimeEST,TemperatureF,Dew PointF,Humidity,Sea Level PressureIn,VisibilityMPH,Wind Direction,Wind SpeedMPH,Gust SpeedMPH,PrecipitationIn,Events,Conditions,WindDirDegrees,DateUTC
12:55 AM,73.4,71.2,93,30.03,10.0,ESE,3.5,-,N/A,,Partly Cloudy,120,2012-12-09 05:55:00
1:55 AM,73.2,71.1,93,30.02,10.0,Calm,Calm,-,N/A,,Clear,0,2012-12-09 06:55:00
2:55 AM,71.8,70.3,95,30.01,10.0,Calm,Calm,-,N/A,,Clear,0,2012-12-09 07:55:00
3:14 AM,71.6,69.8,94,30.01,2.5,Calm,Calm,-,N/A,,Clear,0,2012-12-09 08:14:00
3:16 AM,71.6,69.8,94,30.01,2.5,Calm,Calm,-,N/A,,Clear,0,2012-12-09 08:16:00
3:23 AM,71.6,69.8,94,30.01,1.8,Calm,Calm,-,N/A,,Clear,0,2012-12-09 08:23:00
3:26 AM,71.6,69.8,94,30.01,1.2,Calm,Calm,-,N/A,,Clear,0,2012-12-09 08:26:00
3:28 AM,69.8,68.0,94,30.01,1.0,Calm,Calm,-,N/A,,Clear,0,2012-12-09 08:28:00
3:31 AM,69.8,68.0,94,30.01,1.0,Calm,Calm,-,N/A,,Clear,0,2012-12-09 08:31:00
3:33 AM,69.8,68.0,94,30.01,1.2,Calm,Calm,-,N/A,,Clear,0,2012-12-09 08:33:00
3:35 AM,69.8,68.0,94,30.02,1.2,Calm,Calm,-,N/A,,Clear,0,2012-12-09 08:35:00
3:36 AM,69.8,68.0,94,30.02,1.5,Calm,Calm,-,N/A,,Clear,0,2012-12-09 08:36:00
3:39 AM,69.8,68.0,94,30.02,2.0,Calm,Calm,-,N/A,,Clear,0,2012-12-09 08:39:00
3:42 AM,69.8,68.0,94,30.02,3.0,Calm,Calm,-,N/A,,Partly Cloudy,0,2012-12-09 08:42:00
3:43 AM,69.8,68.0,94,30.02,3.0,Calm,Calm,-,N/A,,Partly Cloudy,0,2012-12-09 08:43:00
3:46 AM,69.8,68.0,94,30.02,4.0,NNW,3.5,-,N/A,,Partly Cloudy,340,2012-12-09 08:46:00
3:55 AM,70.5,68.9,95,30.02,7.0,NNW,3.5,-,N/A,,Partly Cloudy,340,2012-12-09 08:55:00
4:55 AM,71.2,69.8,95,30.03,10.0,NNW,4.6,-,N/A,,Scattered Clouds,340,2012-12-09 09:55:00
5:55 AM,70.5,69.1,95,30.04,9.0,Calm,Calm,-,N/A,,Clear,0,2012-12-09 10:55:00
6:11 AM,69.8,68.0,94,30.05,2.5,Calm,Calm,-,N/A,,Clear,0,2012-12-09 11:11:00
6:14 AM,69.8,68.0,94,30.05,1.8,Calm,Calm,-,N/A,,Clear,0,2012-12-09 11:14:00
6:16 AM,69.8,68.0,94,30.05,1.5,Calm,Calm,-,N/A,,Clear,0,2012-12-09 11:16:00
6:17 AM,69.8,68.0,94,30.05,1.2,Calm,Calm,-,N/A,,Clear,0,2012-12-09 11:17:00
6:21 AM,69.8,68.0,94,30.05,1.2,Calm,Calm,-,N/A,,Clear,0,2012-12-09 11:21:00
6:22 AM,69.8,69.8,100,30.05,1.5,Calm,Calm,-,N/A,,Clear,0,2012-12-09 11:22:00
6:26 AM,69.8,69.8,100,30.05,2.0,NNE,3.5,-,N/A,,Clear,30,2012-12-09 11:26:00
6:30 AM,69.8,68.0,94,30.05,1.8,NNE,3.5,-,N/A,,Partly Cloudy,30,2012-12-09 11:30:00
6:31 AM,69.8,68.0,94,30.05,1.8,Calm,Calm,-,N/A,,Partly Cloudy,0,2012-12-09 11:31:00
6:33 AM,69.8,68.0,94,30.05,1.8,Calm,Calm,-,N/A,,Partly Cloudy,0,2012-12-09 11:33:00
6:39 AM,69.8,68.0,94,30.05,2.0,Calm,Calm,-,N/A,,Partly Cloudy,0,2012-12-09 11:39:00
6:42 AM,69.8,68.0,94,30.05,3.0,Calm,Calm,-,N/A,,Partly Cloudy,0,2012-12-09 11:42:00
6:43 AM,69.8,68.0,94,30.05,3.0,NE,3.5,-,N/A,,Partly Cloudy,50,2012-12-09 11:43:00
6:55 AM,70.2,68.7,95,30.06,3.0,NE,3.5,-,N/A,,Partly Cloudy,40,2012-12-09 11:55:00
6:59 AM,69.8,68.0,94,30.06,2.5,Calm,Calm,-,N/A,,Clear,0,2012-12-09 11:59:00
7:07 AM,69.8,68.0,94,30.06,1.8,Calm,Calm,-,N/A,,Clear,0,2012-12-09 12:07:00
7:18 AM,69.8,68.0,94,30.06,2.0,Calm,Calm,-,N/A,,Clear,0,2012-12-09 12:18:00
7:20 AM,69.8,68.0,94,30.06,4.0,Calm,Calm,-,N/A,,Partly Cloudy,0,2012-12-09 12:20:00
7:55 AM,71.2,70.2,96,30.07,10.0,Calm,Calm,-,N/A,,Clear,0,2012-12-09 12:55:00
8:55 AM,75.2,74.1,96,30.08,10.0,NE,3.5,-,N/A,,Clear,40,2012-12-09 13:55:00
9:55 AM,78.1,75.4,91,30.10,10.0,SSE,5.8,-,N/A,,Partly Cloudy,150,2012-12-09 14:55:00
10:45 AM,80.6,73.4,79,30.10,10.0,SE,5.8,-,N/A,,Mostly Cloudy,140,2012-12-09 15:45:00
10:47 AM,80.6,73.4,79,30.09,10.0,SE,8.1,-,N/A,,Scattered Clouds,140,2012-12-09 15:47:00
10:55 AM,80.8,73.8,79,30.09,10.0,SE,8.1,-,N/A,,Mostly Cloudy,130,2012-12-09 15:55:00
10:58 AM,80.6,73.4,79,30.09,10.0,SE,8.1,-,N/A,,Mostly Cloudy,140,2012-12-09 15:58:00
11:03 AM,80.6,73.4,79,30.09,10.0,ESE,9.2,-,N/A,,Mostly Cloudy,120,2012-12-09 16:03:00
11:55 AM,81.0,73.9,79,30.07,10.0,SE,6.9,-,N/A,,Clear,140,2012-12-09 16:55:00
12:55 PM,82.8,72.9,72,30.04,10.0,SE,9.2,-,N/A,,Mostly Cloudy,130,2012-12-09 17:55:00
1:55 PM,81.5,74.1,78,30.02,10.0,SE,8.1,-,N/A,,Partly Cloudy,130,2012-12-09 18:55:00
2:55 PM,82.6,74.1,75,30.01,10.0,SE,5.8,-,N/A,,Partly Cloudy,130,2012-12-09 19:55:00
3:55 PM,82.6,74.1,75,30.01,10.0,SE,8.1,-,N/A,,Partly Cloudy,130,2012-12-09 20:55:00
4:55 PM,80.8,73.6,79,30.02,10.0,SE,6.9,-,N/A,,Clear,140,2012-12-09 21:55:00
5:55 PM,77.0,73.4,89,30.03,10.0,ESE,3.5,-,N/A,,Clear,110,2012-12-09 22:55:00
6:55 PM,75.4,73.2,93,30.04,10.0,SE,4.6,-,N/A,,Clear,130,2012-12-09 23:55:00
7:55 PM,75.2,73.0,93,30.05,10.0,SE,4.6,-,N/A,,Clear,130,2012-12-10 00:55:00
8:55 PM,74.1,72.3,94,30.06,10.0,Calm,Calm,-,N/A,,Clear,0,2012-12-10 01:55:00
9:55 PM,71.8,70.0,94,30.06,4.0,SE,3.5,-,N/A,,Clear,140,2012-12-10 02:55:00
10:31 PM,71.6,71.6,100,30.06,5.0,Calm,Calm,-,N/A,,Clear,0,2012-12-10 03:31:00
10:34 PM,71.6,71.6,100,30.06,5.0,Calm,Calm,-,N/A,,Clear,0,2012-12-10 03:34:00
10:55 PM,72.5,72.3,99,30.06,10.0,Calm,Calm,-,N/A,,Clear,0,2012-12-10 03:55:00
11:55 PM,71.2,70.9,99,30.05,10.0,Calm,Calm,-,N/A,,Clear,0,2012-12-10 04:55:00